Regional Weather Roundup
Issued by NWS

Home | Current Version | Previous Version | Graphics & Text | Print | Product List | Glossary On
Versions: 1 2 3 4 5 6 7 8 9 10 11 12 13 14 15 16 17 18 19 20 21 22 23 24 25 26 27 28 29 30 31 32 33 34 35 36 37 38 39 40 41 42 43 44 45 46 47 48 49 50
000
ASUS45 KPSR 180010
RWRAZ

ARIZONA REGIONAL HOURLY WEATHER ROUNDUP
NATIONAL WEATHER SERVICE PHOENIX AZ
500 PM MST FRI APR 17 2015

NOTE: FAIR INDICATES FEW OR NO CLOUDS BELOW 12,000 FEET WITH NO
SIGNIFICANT WEATHER AND/OR OBSTRUCTIONS TO VISIBILITY.

AZZ001>003-036-180100-
NORTHWEST ARIZONA

CITY           SKY/WX    TMP DP  RH WIND       PRES   REMARKS
BULLHEAD CITY  SUNNY     84  18   8 N10       29.90F
KINGMAN        MOSUNNY   68  19  15 NW14      30.01S
6HR MIN TEMP:  63; 6HR MAX TEMP:  72;

$$

AZZ004>008-015-016-018-180100-
NORTH CENTRAL ARIZONA

CITY           SKY/WX    TMP DP  RH WIND       PRES   REMARKS
GRAND CANYON   CLOUDY    51  26  37 N10G18    30.08S
6HR MIN TEMP:  41; 6HR MAX TEMP:  53;

WILLIAMS       CLOUDY    50  27  40 N13       30.17R
PRESCOTT       PTSUNNY   60  21  22 N8        30.03R
6HR MIN TEMP:  53; 6HR MAX TEMP:  63;

FLAGSTAFF      PTSUNNY   44  28  53 VRB6      30.10R
6HR MIN TEMP:  44; 6HR MAX TEMP:  49;

PAYSON         PTSUNNY   61  14  16 VRB5G15   30.04S
PAGE           CLOUDY    60  30  32 MISG      29.98F
6HR MIN TEMP:  49; 6HR MAX TEMP:  61;

$$

AZZ009>014-017-180100-
NORTHEAST ARIZONA

CITY           SKY/WX    TMP DP  RH WIND       PRES   REMARKS
WINSLOW        CLOUDY    57  27  31 NW14G23   30.04R
6HR MIN TEMP:  49; 6HR MAX TEMP:  63;

SAINT JOHNS    CLOUDY    56  18  22 W25G36    30.01S
6HR MIN TEMP:  46; 6HR MAX TEMP:  57;

WINDOW ROCK    PTSUNNY   50  19  29 W15       30.03S
6HR MIN TEMP:  41; 6HR MAX TEMP:  50;

SHOW LOW       MOSUNNY   50  16  25 NW9       30.06S
$$

AZZ023-180100-
GREATER PHOENIX AREA

CITY           SKY/WX    TMP DP  RH WIND       PRES   REMARKS
PHOENIX        MOSUNNY   80  19  10 W12G22    29.90F
6HR MIN TEMP:  71; 6HR MAX TEMP:  81;

BUCKEYE        SUNNY     81  19  10 W14G20    29.91S
GLENDALE       MOSUNNY   82  18   9 MISG      29.90F
LUKE AFB       SUNNY     81  20  10 W2        29.89S
6HR MIN TEMP:  71; 6HR MAX TEMP:  82;

DEER VALLEY    SUNNY     77  19  11 S13G23    29.90F
6HR MIN TEMP:  69; 6HR MAX TEMP:  79;

SCOTTSDALE     MOSUNNY   77  20  12 VRB5      29.93F
6HR MIN TEMP:  69; 6HR MAX TEMP:  78;

MESA-FALCON    MOSUNNY   77  19  11 S8        29.93F
MESA-GATEWAY   MOSUNNY   75  19  12 NW10G17   29.96S
$$

AZZ027-028-180100-
SOUTHWEST MARICOPA COUNTY AND PINAL COUNTY

CITY           SKY/WX    TMP DP  RH WIND       PRES   REMARKS
CASA GRANDE    SUNNY     77  21  12 NW9       29.93F
6HR MIN TEMP:  68; 6HR MAX TEMP:  79;

GILA BEND      MOSUNNY   82  13   7 W12G21    29.90S
6HR MIN TEMP:  72; 6HR MAX TEMP:  83;

$$

AZZ503-504-507>509-180100-
SOUTHEAST ARIZONA

CITY           SKY/WX    TMP DP  RH WIND       PRES   REMARKS
TUCSON         SUNNY     74  15  10 N10       30.00S
6HR MIN TEMP:  68; 6HR MAX TEMP:  76;

DAVIS-MONTHAN  SUNNY     72  15  11 N12G20    29.98S
6HR MIN TEMP:  67; 6HR MAX TEMP:  73;

RYAN FIELD       N/A     73  18  12 N3        29.99S
NOGALES        SUNNY     70  12  10 W9        30.01S
6HR MIN TEMP:  65; 6HR MAX TEMP:  72;

SIERRA VISTA   SUNNY     65   8  10 NW9G21    30.03S
6HR MIN TEMP:  61; 6HR MAX TEMP:  67;

DOUGLAS        SUNNY     70  13  11 NW14      29.99S
6HR MIN TEMP:  63; 6HR MAX TEMP:  71;

SAFFORD        SUNNY     73  10   9 W18G30    29.93F
6HR MIN TEMP:  64; 6HR MAX TEMP:  74;

$$

AZZ020-021-025-026-031-180100-
SOUTHWEST ARIZONA

CITY           SKY/WX    TMP DP  RH WIND       PRES   REMARKS
YUMA           SUNNY     86  21   9 W12       29.90F
6HR MIN TEMP:  79; 6HR MAX TEMP:  87;

$$

CAZ031-033-041-043-047-048-061-180100-
SOUTHERN CALIFORNIA

CITY           SKY/WX    TMP DP  RH WIND       PRES   REMARKS
DOWNTOWN L.A.  SUNNY     74  40  29 VRB3      29.95F
6HR MIN TEMP:  73; 6HR MAX TEMP:  81;

L.A. AIRPORT   SUNNY     68  47  46 SW14G23   29.96F
6HR MIN TEMP:  68; 6HR MAX TEMP:  73;

SAN DIEGO      SUNNY     74  42  31 NW14G21   29.98S
6HR MIN TEMP:  72; 6HR MAX TEMP:  76;

BURBANK        SUNNY     83  20   9 W15G23    29.94S
6HR MIN TEMP:  75; 6HR MAX TEMP:  84;

ONTARIO        SUNNY     82  18   9 W16G25    29.95S
6HR MIN TEMP:  73; 6HR MAX TEMP:  85;

RIVERSIDE      SUNNY     82  17   9 W17G25    29.94S
6HR MIN TEMP:  75; 6HR MAX TEMP:  87;

PALM SPRINGS   SUNNY     89  13   6 SW3       29.87F
6HR MIN TEMP:  81; 6HR MAX TEMP:  92;

EL CENTRO NAS  SUNNY     87  13   6 CALM      29.88F
6HR MIN TEMP:  79; 6HR MAX TEMP:  88;

IMPERIAL       SUNNY     85  23  10 VRB6      29.88F
6HR MIN TEMP:  77; 6HR MAX TEMP:  87;

BLYTHE         SUNNY     86  20   9 NE8       29.90F
6HR MIN TEMP:  76; 6HR MAX TEMP:  86;

NEEDLES        SUNNY     85  17   8 NE7       29.91F
6HR MIN TEMP:  75; 6HR MAX TEMP:  85;

$$

NVZ020-UTZ003-180100-
SOUTHERN NEVADA-UTAH

CITY           SKY/WX    TMP DP  RH WIND       PRES   REMARKS
LAS VEGAS      MOSUNNY   79  13   8 VRB6      29.89F
6HR MIN TEMP:  69; 6HR MAX TEMP:  80;

SALT LAKE CITY PTSUNNY   61  35  37 W12       30.01F
6HR MIN TEMP:  53; 6HR MAX TEMP:  61;

$$

NMZ009-TXZ055-180100-
NEW MEXICO-WEST TEXAS

CITY           SKY/WX    TMP DP  RH WIND       PRES   REMARKS
ALBUQUERQUE    CLOUDY    52  20  28 NW12      30.01S
6HR MIN TEMP:  49; 6HR MAX TEMP:  55;

EL PASO        SUNNY     70   2   7 W16G29    29.95S
6HR MIN TEMP:  63; 6HR MAX TEMP:  71;

$$


........................KEY........................
SKY/WX - SKY CONDITION/WEATHER
TMP    - TEMPERATURE IN FAHRENHEIT
DP     - DEW POINT IN FAHRENHEIT
RH     - RELATIVE HUMIDITY IN PERCENT
WIND   - DIRECTION AND SPEED IN MILES PER HOUR (MPH)
VRB    - VARIABLE WIND DIRECTION
PRES   - MEAN SEA LEVEL PRESSURE IN INCHES OF MERCURY
         F - FALLING PRESSURE   R - RISING PRESSURE
         S - STEADY PRESSURE
VSB    - VISIBILITY IN MILES
HX     - HEAT INDEX IN FAHRENHEIT
WCI    - WIND CHILL INDEX IN FAHRENHEIT
TC     - TEMPERATURE IN CELSIUS WHICH IS ALSO KNOWN AS
         TEMPERATURE IN CENTIGRADE
AFB    - AIR FORCE BASE
         LUKE AFB IS LUKE AIR FORCE BASE
         DAVIS-MONTHAN IS DAVIS-MONTHAN AIR FORCE BASE
NAS    - NAVAL AIR STATION
         EL CENTRO NAS IS EL CENTRO NAVAL AIR STATION
N/A    - NOT AVAILABLE



USA.gov is the U.S. government's official web portal to all federal, state and local government web resources and services.